Find OPS 9312

NORAD ID: 2216 Int'l Des: 1966-053 Owner: AFSSD Country: US operational
MEOCIRCULAR

实时位置

正在加载3D地球...

关于 OPS 9312

正在加载描述...

即将过境

Passes for default location (London). Set your location on the main map for personalized predictions.

高度历史

Loading altitude history...

两行轨道根数

1 02216U 66053C 26104.22334953 -.00000066 00000-0 00000-0 0 9998
2 02216 8.5406 44.4489 0032184 219.1455 344.9630 1.07850270 48577
Epoch: Apr 14, 2026 • Age: 66 hours

当前状态

高度 33674.5 km
速度 3.16 km/s
星下点 -1.43°S, 40.35°E
类型 other

Most Searched